Location: Hackbridge
(51.3833°N, 0.1500°W)
Time: 02:09:53
(UTC+00:00)

Cosmos 1908 - Pass Details

Date: 13 October 2019
Orbit: 511 x 532 km, 82.5° (Epoch: 12 November)

Event Time Altitude Azimuth Distance (km) Brightness Sun altitude
Rises 18:41:18 0° 168° (SSE) 2,667 6.6 -14.6°
Reaches altitude 10° 18:43:32 10° 160° (SSE) 1,781 5.7 -15.0°
Maximum altitude 18:47:10 37° 93° (E) 836 3.7 -15.5°
Drops below altitude 10° 18:50:48 10° 25° (NNE) 1,789 5.8 -16.1°
Sets 18:53:03 0° 17° (NNE) 2,681 6.7 -16.4°
